Theta_e
322 324 325 321 314 314 308 309 314 311 313 320 324 322 321 323 318 313 341 345 344 346 347 351 350 351 352 353 353 354 354 355 355 354 354 354 353 353 353 352 352 355 356 354 353 351 350 351 351
322 322 321 319 310 307 306 310 309 313 326 329 326 323 318 318 329 336 340 344 346 347 348 347 349 350 351 352 352 353 355 355 354 353 353 353 353 352 352 352 351 353 354 352 351 350 350 350 350
323 319 316 314 313 308 306 310 312 318 328 323 325 330 324 323 332 336 344 345 347 347 347 348 348 349 350 350 351 352 352 352 352 352 352 352 352 352 351 351 351 352 353 352 350 350 349 348 346
321 319 316 310 307 308 308 311 312 314 321 323 327 323 333 340 335 341 346 345 347 347 348 348 347 348 349 350 350 350 350 349 349 350 351 352 352 351 351 350 351 352 352 352 349 348 348 345 344
320 316 309 308 307 308 310 311 312 313 315 323 328 324 329 341 345 345 345 345 346 347 350 352 345 347 349 350 350 349 348 347 348 349 350 351 352 352 351 350 351 351 351 350 349 347 345 344 343
314 313 306 304 306 307 310 312 312 312 317 325 323 323 330 345 344 345 347 349 348 348 350 351 348 347 348 348 348 346 346 346 347 348 349 350 350 349 350 350 350 349 347 346 345 344 343 343 342
310 309 306 305 305 306 308 312 311 312 314 316 326 317 331 340 345 347 348 351 351 351 352 353 351 350 345 344 344 343 344 345 346 346 347 347 346 346 348 348 348 347 345 343 343 342 342 341 341
313 310 304 305 304 305 309 310 312 313 311 318 328 315 321 340 345 347 348 351 352 353 354 354 353 351 351 352 342 342 343 343 344 345 345 343 344 345 346 345 345 344 342 342 342 341 341 340 338
313 306 304 304 304 306 309 309 312 314 312 313 315 319 333 343 345 344 344 347 349 350 352 354 354 353 352 350 349 344 344 343 343 344 343 340 343 345 346 343 343 342 340 341 341 341 339 338 338
309 306 304 307 308 306 308 309 310 311 311 312 312 327 334 338 342 341 339 339 344 346 349 352 354 353 354 349 351 349 348 347 347 346 347 343 345 344 341 343 342 341 339 340 340 338 337 336 341
309 304 307 307 308 309 309 309 310 309 309 313 312 314 324 331 335 335 336 338 340 345 348 349 352 353 352 350 350 348 348 347 347 349 348 347 346 345 344 345 344 345 341 341 340 340 340 341 342
304 308 308 308 308 309 308 311 309 310 312 315 315 316 317 325 326 329 328 331 339 342 346 347 349 350 351 348 348 349 348 348 347 348 351 348 347 346 343 342 343 344 343 342 342 341 342 343 343
305 306 307 308 308 309 310 308 308 310 313 316 316 315 316 317 321 324 329 331 336 341 344 347 349 349 350 349 347 348 348 349 349 349 351 349 346 346 345 344 344 344 344 344 344 342 342 342 341
307 307 307 308 309 309 306 307 307 310 313 313 314 315 316 316 319 321 324 330 335 341 343 348 348 350 350 350 350 348 349 349 350 350 350 351 348 347 346 345 344 344 345 345 344 343 342 341 341
306 303 305 307 307 306 308 304 305 311 312 312 314 317 318 320 322 322 324 329 333 339 344 347 349 350 350 351 349 348 349 349 348 349 351 351 350 349 348 346 345 344 345 345 345 345 344 341 340
303 303 300 304 306 306 306 300 307 310 310 311 314 317 318 321 322 324 325 326 329 334 337 345 346 349 350 351 349 348 349 348 348 349 350 351 350 350 349 346 345 344 344 342 343 342 340 340 338
302 297 299 301 304 305 305 301 306 310 309 309 313 315 316 318 320 323 326 326 326 327 333 340 348 348 350 351 350 350 350 348 347 349 349 350 347 349 349 346 346 347 344 342 341 341 341 338 338
298 297 300 299 303 304 303 302 306 308 307 307 311 314 315 315 316 320 324 325 325 325 327 334 344 348 350 349 349 348 348 348 349 348 348 350 347 345 347 347 346 346 344 342 341 340 341 338 338
299 299 298 301 303 300 301 301 304 306 307 307 309 310 311 313 317 320 324 326 330 333 334 328 336 345 347 346 344 343 343 345 347 347 348 348 345 345 346 343 345 344 344 343 342 341 338 335 338
299 297 298 301 302 300 301 301 304 305 305 308 309 310 312 314 316 321 324 328 334 335 336 336 331 343 347 345 344 341 343 344 345 346 345 343 343 343 343 341 342 343 343 343 341 336 334 332 331
298 297 298 297 301 302 300 299 302 304 308 310 311 312 314 315 318 321 323 331 335 335 336 332 330 342 345 346 343 341 340 338 337 339 341 341 341 341 341 342 342 342 342 342 341 337 335 328 327
296 301 299 297 296 294 301 292 300 303 306 309 312 315 317 319 320 322 327 331 333 334 336 331 333 342 343 345 338 339 337 332 335 336 337 337 340 341 342 344 343 341 340 339 339 337 334 331 322
298 300 299 299 298 297 298 295 298 302 302 306 311 314 317 320 321 323 329 331 334 334 334 337 339 340 340 338 338 339 341 341 337 336 335 334 334 335 333 336 336 336 337 337 336 332 331 328 322
302 301 300 301 299 292 297 296 296 300 303 306 310 313 317 319 322 326 330 332 333 334 334 336 335 335 336 337 338 339 338 337 333 333 331 328 328 327 328 326 328 329 329 329 330 331 330 328 327
301 299 292 290 291 290 298 296 298 304 306 308 310 313 317 319 323 325 327 331 331 331 332 333 334 333 337 339 340 340 338 337 335 332 331 326 327 329 331 329 331 330 328 328 329 328 327 327 326
298 299 292 286 289 292 298 293 298 306 309 310 312 314 316 318 322 324 326 331 330 329 330 331 330 329 332 333 334 337 336 336 336 333 330 329 330 329 328 326 326 326 326 328 329 329 327 326 325
298 296 301 294 296 291 295 299 304 307 308 310 311 313 315 317 321 324 325 327 329 326 328 329 328 327 327 328 330 332 333 333 331 330 331 329 326 321 321 321 321 321 321 323 324 323 322 323 324
300 302 293 296 286 285 292 294 296 302 304 307 310 312 315 318 320 323 324 324 329 324 323 325 326 324 324 327 328 327 328 327 327 326 324 323 323 322 322 321 320 321 321 322 322 322 321 321 320
297 297 297 298 295 289 289 294 305 305 307 308 311 313 316 319 321 323 323 323 324 327 321 321 322 322 321 320 320 321 321 321 322 321 321 322 322 322 322 321 321 320 319 318 315 315 317 314 315
300 297 299 293 292 295 295 296 308 310 311 312 312 313 317 319 321 323 323 322 322 323 324 318 319 320 319 320 321 319 321 321 321 321 320 321 320 320 319 319 318 317 316 316 313 311 310 310 310
Wind_Speed
7 5 4 6 7 7 7 7 2 5 5 4 3 5 11 9 9 7 5 7 17 18 18 17 12 13 14 17 17 17 17 17 16 15 14 14 13 12 12 11 10 11 14 17 18 16 17 17 15
3 4 5 4 8 8 7 5 5 4 10 10 9 6 7 10 7 10 11 7 17 18 18 18 12 13 14 16 17 17 18 17 17 15 14 13 13 12 10 10 10 11 13 16 18 18 17 16 13
7 5 5 4 3 1 7 5 6 7 10 5 5 2 3 5 5 5 5 13 18 18 18 17 14 13 15 16 16 17 17 17 17 16 15 13 13 14 12 10 10 12 13 15 17 18 16 13 13
4 6 5 8 7 7 3 3 2 6 7 6 3 8 5 4 3 4 13 15 17 17 17 18 13 13 14 15 15 16 16 15 16 16 15 14 13 13 11 9 11 11 13 15 16 16 13 11 10
4 4 5 4 6 3 1 3 2 4 4 6 6 9 8 6 5 6 15 13 16 16 15 17 12 13 14 15 15 15 15 15 15 15 15 13 12 12 10 9 9 11 11 12 13 11 11 10 9
5 4 8 8 5 3 1 3 2 3 5 6 5 8 7 9 8 8 12 11 12 15 14 17 14 13 13 13 13 13 14 15 14 14 14 13 12 11 10 9 9 11 10 9 10 10 9 9 8
7 6 2 1 5 6 3 3 2 1 4 5 2 4 6 10 8 9 10 9 10 14 14 15 16 15 10 11 12 12 13 14 14 13 12 12 11 11 10 10 10 9 10 9 9 8 7 7 5
5 6 5 4 6 6 4 1 4 5 4 2 4 3 8 12 10 10 10 10 10 12 13 14 15 16 15 14 9 11 12 13 13 14 13 12 11 10 10 10 10 9 10 9 9 8 6 5 6
3 6 7 3 7 7 3 1 5 3 4 1 1 2 6 10 11 11 10 10 10 11 14 14 15 15 15 14 13 11 11 11 12 12 12 13 12 13 13 8 12 10 9 9 9 8 7 6 3
8 6 3 5 2 4 3 4 5 4 6 5 4 3 4 9 12 12 13 13 13 15 16 15 15 15 15 12 14 15 14 13 13 13 15 12 12 12 12 10 11 10 9 9 9 9 7 8 7
4 8 1 3 2 5 5 7 2 4 10 8 4 5 7 8 11 12 13 13 16 15 13 16 15 15 16 13 11 9 9 10 11 15 14 12 10 9 9 8 8 9 10 8 9 9 9 9 5
8 5 5 2 3 5 9 8 7 10 14 6 6 8 8 10 12 13 14 14 13 15 17 16 17 15 16 11 11 12 11 11 10 13 16 11 9 10 10 8 10 9 9 10 10 7 7 7 8
10 6 5 6 8 11 11 14 10 19 14 14 13 11 14 15 15 14 13 14 14 15 16 17 17 16 15 15 12 12 12 11 13 13 15 12 11 10 10 9 8 8 8 8 8 8 7 8 7
3 5 8 7 13 9 10 13 3 14 8 10 11 14 13 13 12 10 12 14 14 15 16 17 19 18 17 15 14 11 11 12 12 12 13 16 12 10 11 10 10 9 8 8 8 7 7 7 6
3 10 11 12 12 11 7 13 15 18 11 11 8 7 6 8 8 10 7 11 15 15 15 17 19 19 18 17 14 12 11 12 12 12 15 16 14 13 12 10 10 8 9 9 7 7 7 7 6
7 5 10 8 8 5 8 11 6 1 6 10 8 8 8 11 10 11 10 10 11 12 17 17 16 19 19 16 14 12 12 10 11 12 12 15 16 14 12 10 9 8 8 8 9 9 9 8 7
9 12 10 6 6 5 12 10 2 1 4 9 12 12 10 12 15 15 14 13 11 11 12 15 18 19 20 17 14 14 14 12 12 12 11 14 14 15 12 11 10 12 8 9 9 9 9 8 8
14 12 12 12 6 8 12 17 15 13 13 15 17 17 16 17 19 16 10 11 12 10 10 12 14 18 18 14 13 11 11 12 11 11 11 14 11 14 13 10 10 10 9 9 9 10 9 7 7
8 10 14 13 4 8 14 21 19 15 16 18 20 19 20 21 18 12 8 8 10 11 12 13 15 16 15 13 13 11 13 12 11 11 13 12 11 11 13 7 7 9 11 11 11 10 10 7 5
15 15 18 17 10 9 17 21 16 18 18 21 23 21 20 19 16 11 8 9 10 11 12 12 15 17 16 13 11 9 9 7 8 5 8 12 12 11 11 9 8 10 10 10 9 11 6 6 9
17 18 16 18 16 16 21 25 19 13 13 16 20 21 17 17 13 10 7 5 6 7 8 10 15 16 15 15 9 9 8 5 5 8 9 10 10 10 10 11 10 10 7 7 9 9 11 7 7
19 15 17 17 13 10 3 11 13 12 14 16 16 15 14 12 11 8 5 4 3 4 3 7 12 13 14 14 13 16 10 9 7 6 5 6 9 9 10 10 9 6 5 7 7 7 6 5 6
16 6 13 13 13 12 14 8 8 6 11 15 14 13 13 11 11 7 5 3 2 4 3 5 9 12 11 13 13 12 11 8 7 6 9 8 6 6 4 4 4 4 4 6 5 5 8 6 5
8 10 7 6 7 14 16 17 12 13 16 11 12 10 9 10 8 5 4 4 4 6 7 7 11 11 12 12 12 13 12 10 9 7 6 5 4 4 6 6 5 5 5 5 5 7 9 8 8
20 15 8 10 9 13 7 14 16 6 5 10 11 9 8 8 8 8 9 7 5 6 7 7 9 9 9 9 10 10 10 9 9 7 5 6 5 4 5 5 5 4 4 5 6 6 7 6 6
26 22 10 11 14 12 4 12 8 9 10 17 13 11 6 8 7 8 8 7 6 6 7 9 10 9 8 8 7 6 8 5 5 7 6 4 4 4 5 3 1 2 2 4 5 4 4 5 6
19 23 14 11 11 8 12 16 13 10 12 11 16 16 14 9 10 11 10 9 9 7 7 6 10 11 10 10 8 9 8 9 8 9 7 6 6 4 4 3 2 2 3 4 5 4 6 7 8
17 15 11 9 8 15 16 18 12 7 13 16 16 14 10 9 10 11 11 9 10 9 9 7 8 10 10 10 9 9 10 10 9 7 8 7 6 6 5 4 2 4 5 6 6 6 6 7 6
18 16 13 12 14 13 18 14 3 9 11 12 13 11 8 10 10 12 12 12 10 12 10 9 8 9 10 10 10 10 9 9 8 8 7 6 5 4 2 1 3 4 5 5 6 7 7 7 7
27 27 28 11 15 13 16 20 5 7 7 6 4 3 6 8 11 13 12 12 12 12 13 11 9 10 10 10 10 9 9 9 8 7 7 5 5 4 3 2 4 5 6 6 7 7 6 8 8
Wind_Direction
197 234 260 240 234 239 131 106 54 140 141 61 75 19 54 24 7 40 120 125 132 153 157 163 150 149 144 138 135 134 133 133 131 132 132 131 131 130 129 128 129 128 126 124 122 120 120 119 112
280 250 228 275 255 184 112 113 148 87 101 113 109 130 98 74 57 101 135 147 157 154 156 164 156 151 147 143 140 139 140 136 134 136 135 135 135 133 132 128 129 130 129 128 126 124 125 121 110
258 265 270 281 252 104 117 131 106 116 148 151 134 321 116 89 88 108 91 153 157 159 160 156 161 155 153 147 145 144 141 139 138 140 138 141 140 138 135 128 131 136 134 131 130 129 131 128 127
270 199 201 254 115 83 51 91 114 169 188 224 192 128 130 59 107 59 143 156 160 162 166 141 164 162 158 151 148 146 142 142 142 142 143 145 144 141 136 136 137 136 136 133 133 133 131 130 131
236 241 232 194 118 97 335 321 274 191 122 164 208 128 124 115 102 124 150 158 165 164 170 161 169 168 162 157 153 151 147 145 146 144 144 147 146 142 137 136 134 131 132 135 134 135 132 131 136
238 270 229 194 140 117 73 12 218 196 159 146 201 145 121 115 136 134 157 154 167 167 168 165 172 173 166 162 158 153 150 149 148 147 148 149 144 142 138 132 127 128 131 133 133 132 138 142 148
280 260 278 137 131 162 88 337 47 105 172 99 103 168 106 151 120 146 154 153 164 168 171 167 179 178 168 165 160 156 154 155 150 148 149 145 142 144 140 134 132 135 135 136 131 135 142 136 138
277 272 220 198 183 125 84 129 21 20 97 354 340 158 136 123 143 151 152 156 163 170 177 176 181 184 182 180 162 159 161 157 154 152 148 144 142 145 145 143 142 148 145 143 141 145 145 147 150
250 242 229 201 201 128 153 257 79 322 250 327 156 336 79 135 156 163 164 166 169 179 182 185 186 185 185 187 173 163 164 157 151 152 150 153 170 172 163 157 146 157 156 151 153 152 156 161 167
236 253 229 30 90 141 234 299 17 259 217 205 186 163 147 170 186 191 194 189 190 185 187 190 190 188 186 190 179 189 180 182 183 180 173 182 175 183 187 155 161 160 164 162 164 158 163 209 191
169 257 34 143 242 269 281 271 131 254 246 244 244 211 187 197 205 218 220 212 202 190 188 194 191 190 193 195 186 190 188 189 189 188 184 193 179 181 191 169 180 179 180 184 183 177 202 205 229
234 232 247 123 193 270 268 311 257 253 264 293 275 283 270 228 233 232 238 224 207 195 194 194 191 192 196 197 194 192 192 193 194 193 190 190 187 179 193 190 190 197 180 195 196 198 214 204 211
232 228 229 243 258 263 280 268 280 267 256 249 263 255 261 258 253 250 245 245 202 210 200 194 195 193 193 202 195 196 203 196 200 194 193 195 197 187 190 192 191 198 192 198 201 208 203 212 211
111 241 254 254 256 248 258 271 230 260 255 245 241 252 246 249 249 262 249 240 228 209 206 197 198 195 195 195 198 198 193 195 207 200 199 204 202 190 194 191 195 191 199 221 208 208 206 214 214
238 264 246 238 248 246 246 243 234 260 268 261 232 219 219 221 248 256 256 239 232 222 212 203 202 196 198 194 195 198 194 205 201 204 202 203 209 198 201 197 206 196 197 212 217 211 218 215 212
242 249 255 128 196 184 221 270 195 332 244 242 249 239 236 246 251 258 260 256 251 231 218 209 202 200 199 194 184 196 197 194 200 205 199 196 213 205 204 202 195 200 203 205 211 208 211 217 214
205 256 217 232 216 215 221 278 165 60 264 263 261 252 247 257 259 254 248 260 259 248 228 212 206 207 199 196 190 199 190 193 199 207 203 191 206 209 209 207 199 200 198 212 211 214 222 209 218
235 224 226 247 138 215 236 253 263 267 270 266 261 264 262 261 263 260 261 254 269 253 246 236 205 208 198 194 195 194 191 197 197 201 206 199 197 205 206 214 211 203 205 205 218 222 219 241 230
283 261 265 267 168 281 261 269 270 268 261 257 262 261 263 265 265 258 255 243 244 250 249 232 213 199 194 194 189 196 196 196 196 200 202 203 198 203 203 203 204 204 218 216 210 218 217 209 207
236 256 262 279 280 252 269 273 274 262 253 257 261 258 254 256 255 251 235 235 246 262 257 240 224 195 194 191 187 186 196 204 198 175 195 196 203 196 200 197 200 205 218 220 201 202 195 195 184
231 240 252 264 294 274 264 271 257 245 253 251 248 257 259 255 258 250 251 254 249 250 258 231 215 192 189 187 164 176 160 140 166 187 200 202 196 194 199 204 204 206 210 217 203 201 204 196 193
239 221 254 263 278 271 13 289 277 263 246 247 247 240 241 235 239 246 234 228 269 318 299 199 189 175 184 173 167 175 170 184 193 180 178 175 193 199 200 211 205 198 197 215 212 201 204 193 184
245 200 226 240 256 284 233 252 284 188 238 245 238 244 246 234 230 223 197 201 165 86 98 134 157 177 160 162 177 181 193 183 155 162 177 175 180 174 157 169 166 192 196 210 204 194 204 192 179
148 158 173 210 255 252 247 238 260 244 215 242 263 261 223 216 209 192 173 185 140 120 123 143 152 152 163 172 172 176 167 152 159 162 167 162 170 169 176 159 180 189 191 211 216 222 216 209 214
194 183 203 219 212 251 234 244 239 267 208 238 240 260 209 201 200 203 195 186 143 138 125 124 136 134 157 161 164 163 164 159 152 153 151 153 167 191 170 175 187 190 199 216 208 216 219 221 227
198 192 204 224 230 258 171 241 257 226 246 232 242 250 236 210 219 206 192 168 151 144 136 134 131 117 107 107 110 116 134 148 125 146 141 155 150 113 115 136 152 209 257 254 236 238 249 240 235
193 215 242 277 262 263 246 241 232 199 226 232 236 241 231 235 209 200 180 173 149 138 117 126 125 121 120 116 112 114 119 122 118 112 119 119 103 90 111 131 157 213 240 240 251 232 231 221 227
192 186 193 209 224 238 243 243 257 197 222 225 234 234 230 232 214 193 180 171 153 137 112 114 123 119 119 119 116 112 110 109 111 110 105 105 110 126 140 142 175 226 241 250 246 248 247 247 248
194 200 214 222 227 238 266 264 265 223 221 221 225 228 228 224 210 189 178 158 160 146 132 125 122 119 106 96 93 96 95 92 98 104 110 115 122 116 116 139 254 256 260 253 238 238 239 229 240
212 213 203 198 201 233 258 264 115 129 158 173 187 223 230 222 205 188 172 161 159 151 139 135 135 125 114 114 112 113 121 123 118 108 100 94 92 75 26 312 282 268 255 258 260 256 240 238 226